Flag for U.S.A. Weather past 2 weeks in Santa Cruz, California, U.S.A.

Now
52 °F

Fog.


Feels Like: 52 °F
Forecast: 56 / 67 °F
Wind: No wind

Location: Watsonville Municipal Airport

Current Time: Oct 24, 2014 at 5:08:45 AM

Latest Report: Oct 24, 2014 at 4:56 AM


Visibility: 2 mi

Pressure: 29.96 "Hg

Humidity: 97%

Dew point: 51 °F

Location of Santa CruzLocation

Historic Weather in Santa Cruz — Graph

°F

Santa Cruz temperature yesterday

Maximum temperature yesterday: 76 °F (at 12:53 PM)
Minimum temperature yesterday: 54 °F (at 4:53 AM)
Average temperature yesterday: 64 °F

Past Weeks' High & Low Weather Summary

 TemperatureHumidityPressure
High90 °F (Oct 12, 12:53 PM)100% (Oct 15, 8:53 AM)30.11 "Hg (Oct 15, 8:53 AM)
Low50 °F (Oct 21, 6:53 AM)14% (Oct 12, 2:53 PM)29.85 "Hg (Oct 14, 5:53 PM)
Average63 °F71%29.98 "Hg
* Reported Oct 9 3:53 AM — Oct 24 3:53 AM, Santa Cruz, Weather by CustomWeather, © 2014

Note: Actual official high and low records may vary slightly from our data, if they occured in-between our weather recording intervals... More about our weather records

Advertising

Santa Cruz weather history for previous 24 hours

 ConditionsComfort  
Time TempWeatherWind HumidityBarometerVisibility
3:53 AM
Oct 24
56 °FFog.No wind93%29.96 "Hg1 mi
2:53 AM54 °FPassing clouds.No wind90%29.97 "Hg10 mi
1:53 AM55 °FClear.No wind87%29.97 "Hg10 mi
12:53 AM57 °FClear.3 mph87%29.97 "Hg10 mi
11:53 PM
Oct 23
57 °FClear.No wind87%29.97 "Hg10 mi
10:53 PM59 °FPassing clouds.5 mph87%29.97 "Hg10 mi
9:53 PM60 °FClear.No wind90%29.97 "Hg10 mi
8:53 PM62 °FClear.No wind90%29.96 "Hg10 mi
7:53 PM63 °FClear.3 mph90%29.97 "Hg10 mi
6:53 PM65 °FSunny.5 mph85%29.96 "Hg10 mi
5:53 PM70 °FSunny.5 mph71%29.96 "Hg10 mi
4:53 PM75 °FSunny.No wind55%29.96 "Hg10 mi
3:53 PM73 °FSunny.5 mph59%29.98 "Hg10 mi
2:53 PM74 °FSunny.7 mph53%29.99 "Hg10 mi
1:53 PM76 °FSunny.8 mph45%30.01 "Hg10 mi
12:53 PM76 °FSunny.9 mph47%30.03 "Hg10 mi
11:53 AM74 °FSunny.No wind48%30.05 "Hg10 mi
10:53 AM71 °FSunny.No wind53%30.07 "Hg10 mi
9:53 AM66 °FSunny.No wind63%30.08 "Hg10 mi
8:53 AM62 °FSunny.No wind67%30.08 "Hg10 mi
7:53 AM56 °FClear.No wind81%30.06 "Hg10 mi
6:53 AM55 °FClear.3 mph77%30.05 "Hg10 mi
5:53 AM54 °FClear.No wind77%30.02 "Hg10 mi
Weather by CustomWeather, © 2014

See weather overviewHow to use our weather pages